sat.trackr.live / text

‹ back to catalog

STARLINK-36930

NORAD 68018 · 2026-040D

PAYLOAD ACTIVE UNKNOWN

§ Identity

Operator
Country
US
Launch date
2026-03-01
Launch site
AFWTR
Launch vehicle
Mass (kg)
RCS (m²)

Purposes: comms

External: N2YO · Heavens-Above · Gunter

§ Orbital elements

Epoch: 2026-05-25T03:08:25.930752Z

Period
93.91 min
Inclination
97.2831°
Eccentricity
0.0001303
Mean motion
15.33458358 rev/d
Perigee alt
464.6 km
Apogee alt
466.4 km
Semi-major
6,843.6 km
B*
5.7680e-4
RAAN
94.0817°
Arg perigee
86.2583°
Mean anomaly
273.8808°
Rev number
1,317

§ Raw data

STARLINK-369301 68018U 26040D   26145.13085568  .00018600  00000+0  57680-3 0  99922 68018  97.2831  94.0817 0001303  86.2583 273.8808 15.33458358 13176

JSON: /api/v1/satellites/68018 · /tle

For live sub-satellite position, see the globe view (requires WebGL).

§ Visibility from observer

Set your observer location to see the next 7 days of passes ≥ 10°. The values pass through the URL so the page stays shareable.

No JS? Fill the form by hand. The geolocation button needs JavaScript.